Regional Weather Roundup
Issued by NWS Portland, ME

Current Version | Previous Version | Text Only | Print | Product List | Glossary On
Versions: 1 2 3 4 5 6 7 8 9 10 11 12 13 14 15 16 17 18 19 20 21 22 23 24 25 26 27 28 29 30 31 32 33 34 35 36 37 38 39 40 41 42 43 44 45 46 47 48 49 50
000 ASUS41 KGYX 011610 RWRGYX WEATHER ROUNDUP FOR MAINE AND NEW HAMPSHIRE NATIONAL WEATHER SERVICE GRAY ME 1100 AM EST SUN MAR 01 2015 MEZ002-005-006-010-012-015-018-020-021-024-026-027-029-011700- MAINE CITY SKY/WX TMP DP RH WIND PRES REMARKS PORTLAND CLOUDY 22 6 50 CALM 30.60F SANFORD CLOUDY 19 0 42 CALM 30.59F BAR HARBOR PTSUNNY 21 7 53 CALM 30.62F WISCASSET CLOUDY 24 9 52 E3 30.61F ROCKLAND PTSUNNY 25 14 63 NE3 30.60F FRYEBURG CLOUDY 17 -1 45 CALM 30.56F LEWISTONAUBURN CLOUDY 19 5 53 CALM 30.57F AUGUSTA PTSUNNY 19 4 51 CALM 30.58F WATERVILLE PTSUNNY 19 3 49 SE3 30.55F BANGOR PTSUNNY 23 5 46 CALM 30.60F GREENVILLE N/A 19 0 43 VRB5 30.43F MILLINOCKET PTSUNNY 22 2 42 VRB7 30.55F HOULTON PTSUNNY 20 3 48 S7 30.51F PRESQUE ISLE MOSUNNY 19 3 49 S7 30.50F FRENCHVILLE SUNNY 16 4 59 SE7 30.42F CARIBOU SUNNY 17 4 56 SE6 30.48F $$ NHZ002-005-008-009-011-012-014-011700- NEW HAMPSHIRE CITY SKY/WX TMP DP RH WIND PRES REMARKS PORTSMOUTH CLOUDY 20 4 50 NW1 30.59F ROCHESTER CLOUDY 21 3 45 CALM 30.58F NASHUA CLOUDY 21 3 45 CALM 30.59F MANCHESTER CLOUDY 20 5 52 CALM 30.57F CONCORD CLOUDY 17 3 54 CALM 30.58F LACONIA CLOUDY 18 3 53 CALM 30.53F PLYMOUTH PTSUNNY 15 5 64 CALM 30.54F BERLIN CLOUDY 13 -2 51 N3 30.46F WHITEFIELD PTSUNNY 15 -1 49 CALM 30.46F JAFFREY CLOUDY 20 3 48 CALM 30.50F KEENE CLOUDY 10 1 67 CALM 30.54F LEBANON CLOUDY 11 1 64 W3 30.52F MT WASHINGTON PTSUNNY 7 -15 36 W32G39 N/A WCI -17 $$ VTZ005-007-008-011700- VERMONT CITY SKY/WX TMP DP RH WIND PRES REMARKS ST JOHNSBURY N/A 10 -1 61 MISG 30.49F MONTPELIER CLOUDY 10 1 67 NE6 30.48F BURLINGTON PTSUNNY 23 3 42 S13 30.47F WCI 11 $$ MAZ007-012-024-CTZ003-RIZ002-NYZ038-NYZ072-011700- SOUTHERN NEW ENGLAND AND NY CITY SKY/WX TMP DP RH WIND PRES REMARKS BOSTON CLOUDY 23 8 52 SE3 30.61F WORCESTER CLOUDY 23 4 44 S7 30.51F NANTUCKET CLOUDY 29 12 49 SW7 30.64F PROVIDENCE CLOUDY 27 8 44 SE9 30.61F HARTFORD FLURRIES 23 7 50 W3 30.59F ALBANY LGT SNOW 18 10 71 S12 30.54F WCI 5 NEW YORK CITY CLOUDY 30 5 34 S12 30.60F $$ ANZ081-ANZ082-ANZ150-NHZ014-MEZ023>029-011700- COASTAL MARINE OBSERVATIONS STATION/POSITION TIME TEMP WIND PRES WAVE AIR SEA DIR/SP/G HT/PER (UTC) (F) (DEG/KT/KT) (MB) (FT/S) MOUNT DESERT ROC 1600 30 1035.9F MATINICUS ROCK 1600 30 100/ 4/ 5 1036.0F WELLS 1500 22 50/ 2/ 3 1036.0F ISLE OF SHOALS 1600 23 240/ 4/ 4 1035.8F JEFFREYS LEDGE 1521 41 N/A 2/ 9 CASHES LEDGE BUO 1550 33 39 1035.1F 2/ 9 $$ .............KEY.............. WCI - WIND CHILL TC - TEMPERATURE IN CELSIUS VSB - VISIBILITY IN MILES HX - HEAT INDEX FAIR- INDICATES FEW OR NO CLOUDS BELOW 12,000 FT, WITH NO SIGNIFICANT WEATHER AND/OR OBSTRUCTIONS TO VISIBILITY.

USA.gov is the U.S. government's official web portal to all federal, state and local government web resources and services.